{"data":{"norad_id":67312,"intl_designator":"2026-002H","name":"STARLINK-36485","alt_names":[],"object_type":"PAYLOAD","status":"ACTIVE","operator":null,"country":"US","launch_date":"2026-01-04","launch_site_code":"AFETR","launch_vehicle":null,"mission":null,"orbit_class":"UNKNOWN","rcs_meters":null,"size_class":null,"mass_kg":null,"dimensions":null,"purposes":["comms"],"wikipedia_slug":null,"has_3d_model":false,"image_url":null,"decayed_at":null,"tle_current":{"epoch":"2026-05-24T23:57:10.395072Z","epoch_age_seconds":72318,"freshness":"FRESH","line1":"1 67312U 26002H   26144.99803698  .00015183  00000+0  55989-3 0  9994","line2":"2 67312  43.0039 253.9356 0001249 281.3656  78.7056 15.27592912 22752","mean_motion":15.27592912,"eccentricity":0.0001249,"inclination_deg":43.0039,"raan_deg":253.9356,"arg_perigee_deg":281.3656,"mean_anomaly_deg":78.7056,"bstar":0.00055989,"rev_number":2275,"period_min":94.265951922668,"perigee_km":482.15347582452,"apogee_km":483.86739045332,"semimajor_km":6861.1474331389,"source":"CELESTRAK","updated_at":"2026-05-25T13:38:21.516007Z"}}}